Location: Ecklingerode
(51.5036°N, 10.3122°E)
Time: 13:51:12
(UTC+00:00)

GEOS 3 Rocket - Pass Details

Date: 29 October 2020
Orbit: 770 x 850 km, 115.0° (Epoch: 28 November)

Event Time Altitude Azimuth Distance (km) Brightness Sun altitude
Exits shadow 18:17:20 38° 141° (SE) 1,254 4.2 -22.4°
Maximum altitude 18:19:29 85° 226° (SW) 852 3.6 -22.7°
Drops below altitude 10° 18:24:55 10° 316° (NW) 2,481 6.8 -23.5°
Sets 18:27:16 0° 317° (NW) 3,423 7.6 -23.9°
